This is the latest recevied weather packets stored in our database for station/object VE6EN. If no packets are shown the sender has not sent any weather packets the latest 10 day(s).
| Time | Temp. | Humidity | Pressure | Rain* | Wind** | Luminosity | Snow |
|---|---|---|---|---|---|---|---|
| 1787614804 | 21.67° C | 44% | 1020.5 hPa | 0 mm | - | - | - |
| 1787614203 | 21.67° C | 44% | 1020.5 hPa | 0 mm | - | - | - |
| 1787613603 | 21.67° C | 45% | 1020.6 hPa | 0 mm | - | - | - |
| 1787613003 | 21.67° C | 44% | 1020.6 hPa | 0 mm | - | - | - |
| 1787612404 | 21.67° C | 45% | 1020.5 hPa | 0 mm | - | - | - |
| 1787611210 | 21.11° C | 46% | 1020.6 hPa | 0 mm | - | - | - |
| 1787610002 | 21.11° C | 44% | 1020.6 hPa | 0 mm | - | - | - |
| 1787609403 | 21.11° C | 45% | 1020.5 hPa | 0 mm | - | - | - |
| 1787608812 | 21.11° C | 46% | 1020.6 hPa | 0 mm | - | - | - |
| 1787608203 | 21.11° C | 46% | 1020.6 hPa | 0 mm | - | - | - |
| 1787607602 | 20.56° C | 45% | 1020.8 hPa | 0 mm | - | - | - |
| 1787607003 | 20.56° C | 47% | 1020.8 hPa | 0 mm | - | - | - |
| 1787606410 | 20.56° C | 44% | 1020.8 hPa | 0 mm | - | - | - |
| 1787605808 | 20.56° C | 43% | 1020.8 hPa | 0 mm | - | - | - |
| 1787605209 | 21.11° C | 44% | 1020.7 hPa | 0 mm | - | - | - |
| 1787604604 | 21.11° C | 49% | 1020.6 hPa | 0 mm | - | - | - |
| 1787604003 | 20.56° C | 46% | 1020.5 hPa | 0 mm | - | - | - |
| 1787603402 | 20.56° C | 50% | 1020.6 hPa | 0 mm | - | - | - |
| 1787602803 | 20° C | 46% | 1020.6 hPa | 0 mm | - | - | - |
| 1787602202 | 20° C | 49% | 1020.6 hPa | 0 mm | - | - | - |
| 1787601604 | 20.56° C | 46% | 1020.6 hPa | 0 mm | - | - | - |
| 1787601003 | 20.56° C | 48% | 1020.5 hPa | 0 mm | - | - | - |
| 1787600403 | 20° C | 47% | 1020.6 hPa | 0 mm | - | - | - |
| 1787599803 | 20° C | 49% | 1020.6 hPa | 0 mm | - | - | - |
| 1787599203 | 20° C | 52% | 1020.6 hPa | 0 mm | - | - | - |
* Rain latest hour (hover to see other rain measurements)
** Current wind speed in m/s (hover to see current wind gust speed)